User: anonymous   Login
Location: Gouvernes
(48.8601°N, 2.6907°E)
Time: 17:36:26
(UTC+00:00)
Language:

deb Kosmos-1275 - Orbit

View from above orbital plane
View from above orbital plane
View from above satellite
View from above satellite

Ground track
Ground track

The orbit data is extracted from the following two-line orbital elements,

1 12715U 81053BK  22222.21840806  .00000928  00000-0  38204-3 0  9991
2 12715  83.1160 131.1299 0067916 220.1018 302.9734 14.24733759114487
Epoch (UTC): 10 August 2022 05:14:30
Eccentricity: 0.0067916
inclination: 83.1160°
perigee height: 760 km
apogee height: 858 km
right ascension of ascending node: 131.1299°
argument of perigee: 220.1018°
revolutions per day: 14.24733759
mean anomaly at epoch: 302.9734°
orbit number at epoch: 11448

The dashed part of the orbit path shows where the satellite is in the earth's shadow,  

DLR